Location: Orlando
(28.5380°N, 81.3790°W)
Time: 06:44:36
(UTC-04:00)

Hubble Space Telescope - Visible Passes

Search period start: 19 October 2019 00:00
Search period end: 29 October 2019 00:00
Orbit: 536 x 540 km, 28.5° (Epoch: 19 October)

Date Brightness Start Highest point End Pass type
(mag) Time Alt. Az. Time Alt. Az. Time Alt. Az.
25 Oct 3.7 06:09:02 10° SSE 06:09:52 10° SSE 06:10:42 10° SE visible
26 Oct 3.4 05:57:02 10° S 05:59:12 14° SSE 06:01:23 10° ESE visible
27 Oct 3.0 05:47:15 16° S 05:48:33 18° SSE 05:51:23 10° ESE visible
28 Oct 2.6 05:37:44 22° SSE 05:37:54 23° SSE 05:41:10 10° ESE visible
